This demonstration page uses our WeatherBlox Daily Observations layout. Learn more.

Left ArrowRight Arrow

47.50024, -111.30081

Hourly Observations for June 23, 2020

Temp ( °F °C ) Dew Point ( °F °C ) Humidity (%) Winds ( mph kmh ) Pressure ( in mb ) Visibility ( mi km ) Precip ( " mm )
12:53 am 00:53 Clear 59 15 49 9.4 69 69 S 6 9 30.05 1018 10 16 0.00 0.00
1:53 am 01:53 Clear 54 12.2 48 8.9 80 80 SSW 9 15 30.05 1018 10 16 0.00 0.00
2:53 am 02:53 Clear 53 11.7 47 8.3 80 80 SSW 10 17 30.05 1018 10 16 0.00 0.00
3:53 am 03:53 Clear 53 11.7 46 7.8 77 77 SW 10 17 30.05 1018 10 16 0.00 0.00
4:53 am 04:53 Clear 53 11.7 46 7.8 77 77 SSW 10 17 30.04 1017 10 16 0.00 0.00
5:53 am 05:53 Sunny 53 11.7 46 7.8 77 77 SSW 10 17 30.04 1017 10 16 0.00 0.00
6:53 am 06:53 Sunny 59 15 48 8.9 67 67 SW 7 11 30.03 1017 10 16 0.00 0.00
7:53 am 07:53 Sunny 63 17.2 49 9.4 60 60 SSW 9 15 30.02 1017 10 16 0.00 0.00
8:53 am 08:53 Sunny 68 20 48 8.9 49 49 SW 13 20 30.01 1016 10 16 0.00 0.00
9:53 am 09:53 Sunny 73 22.8 51 10.6 46 46 SW 10 17 30.00 1016 10 16 0.00 0.00
10:53 am 10:53 Sunny 76 24.4 49 9.4 39 39 WSW 9 15 29.98 1015 10 16 0.00 0.00
11:53 am 11:53 Sunny 79 26.1 49 9.4 35 35 SW 8 13 29.98 1015 10 16 0.00 0.00
12:36 pm 12:36 Sunny 81 27.2 50 10 34 34 WSW 13 20 29.79 1009 10 16 0.00 0.00
12:53 pm 12:53 Sunny 81 27.2 49 9.4 33 33 SW 10 17 29.96 1015 10 16 0.00 0.00
1:53 pm 13:53 Sunny 82 27.8 50 10 33 33 SW 10 17 29.96 1014 10 16 0.00 0.00
2:53 pm 14:53 Sunny 84 28.9 50 10 31 31 WNW 12 19 29.93 1014 10 16 0.00 0.00
3:53 pm 15:53 Sunny 84 28.9 48 8.9 29 29 NNW 14 22 29.92 1013 10 16 0.00 0.00
4:53 pm 16:53 Sunny 86 30 49 9.4 28 28 WNW 8 13 29.91 1013 10 16 0.00 0.00
5:53 pm 17:53 Sunny 85 29.4 47 8.3 27 27 NW 9 15 29.90 1012 10 16 0.00 0.00
6:53 pm 18:53 Sunny 85 29.4 48 8.9 28 28 Calm 29.87 1011 10 16 0.00 0.00
7:53 pm 19:53 Sunny 81 27.2 53 11.7 38 38 NE 5 7 29.86 1011 10 16 0.00 0.00
8:53 pm 20:53 Sunny 76 24.4 54 12.2 47 47 ESE 7 11 29.86 1011 10 16 0.00 0.00
9:53 pm 21:53 Partly Cloudy 73 22.8 55 12.8 53 53 ESE 6 9 29.86 1011 10 16 0.00 0.00
10:53 pm 22:53 Clear 70 21.1 52 11.1 53 53 SSE 8 13 29.86 1011 10 16 0.00 0.00
11:53 pm 23:53 Mostly Clear 67 19.4 51 10.6 57 57 S 3 6 29.85 1011 10 16 0.00 0.00

Powered by AerisWeather